Regional Weather Roundup
Issued by NWS

Home | Current Version | Previous Version | Graphics & Text | Print | Product List | Glossary On
Versions: 1 2 3 4 5 6 7 8 9 10 11 12 13 14 15 16 17 18 19 20 21 22 23 24 25 26 27 28 29 30 31 32 33 34 35 36 37 38 39 40 41 42 43 44 45 46 47 48 49 50
000
ASUS45 KCYS 141510
RWRWY

WYOMING REGIONAL WEATHER ROUNDUP
NATIONAL WEATHER SERVICE CHEYENNE WY
900 AM MDT SUN SEP 14 2014

NOTE:  "FAIR" INDICATES FEW OR NO CLOUDS BELOW 12,000 FEET
WITH NO SIGNIFICANT WEATHER AND/OR OBSTRUCTIONS TO VISIBILITY.

WYZ001-141600-
YELLOWSTONE NATIONAL PARK

CITY           SKY/WX    TMP DP  RH WIND       PRES   REMARKS
LK YELLOWSTONE   N/A     42  35  76 CALM      30.22S
W YELLOWSTONE  NOT AVBL

$$
WYZ002>013-054>058-071-098>099-141600-
NORTHERN WYOMING

CITY           SKY/WX    TMP DP  RH WIND       PRES   REMARKS
JACKSON        NOT AVBL
CODY           MOSUNNY   43  37  81 N3        30.09R
GREYBULL       MOSUNNY   43  39  86 CALM      30.08R
WORLAND        SUNNY     45  39  79 CALM      30.07S
SHERIDAN       MOSUNNY   39  35  86 CALM      30.09S
BUFFALO        SUNNY     43  36  76 E3        30.08S
GILLETTE       SUNNY     44  37  76 S20G28    30.09F
HULETT         CLOUDY    45  36  70 MISG      30.14
NEWCASTLE      PTSUNNY   41  34  75 S3        30.15

$$
WYZ014>020-022>026-101>103-141600-
CENTRAL WYOMING

CITY           SKY/WX    TMP DP  RH WIND       PRES   REMARKS
BIG PINEY      PTSUNNY   44  28  53 CALM      30.20S
PINEDALE       MOSUNNY   45  32  61 NW7       30.20F
DUBOIS         FAIR      50  30  46 NW8       30.13S
LANDER         PTSUNNY   46  33  60 NW5       30.10S
RIVERTON       MOSUNNY   49  33  54 W6        30.11S
CASPER         SUNNY     44  33  65 CALM      30.09F
DOUGLAS        SUNNY     44  36  73 S3        30.11F

$$
WYZ021-027>030-104>119-141600-
SOUTHERN WYOMING

CITY           SKY/WX    TMP DP  RH WIND       PRES   REMARKS
EVANSTON       MOSUNNY   57  31  37 SW8       30.21R
KEMMERER       MOSUNNY   50  32  50 NW10      30.21R
FORT BRIDGER   FAIR      62  30  29 W10       30.22S
ROCK SPRINGS   SUNNY     56  26  31 E3        30.17S
DIXON          FAIR      53  38  57 SE6       30.23S
RAWLINS        MOSUNNY   61  32  33 S7        30.17F
SARATOGA       FAIR      57  34  41 SE9       30.21R
LARAMIE        MOSUNNY   62  31  31 SW20      30.19F
CHEYENNE       SUNNY     61  39  44 W5        30.14S
TORRINGTON     FOG       45  45 100 E6        30.10S VSB 1
PINE BLUFFS    FAIR      54  43  66 CALM      30.12R

$$


USA.gov is the U.S. government's official web portal to all federal, state and local government web resources and services.